• In United Kingdom
  • List of Countries
  • For 7 days
  • Water Temperature
  • Satellite Maps
  • Weather Map
  • Weather Widgets
  • user-avatar
    Login

    Hourly Weather Bogota

    Today, 15 December, Friday

    Time Temperature Precipitation Wind Pressure Humidity
    00:00 +9°C° 0.1 mm 1 mps 548 mmHg 72%
    01:00 +9°C° 0.1 mm 1 mps 548 mmHg 71%
    02:00 +9°C° 0 mm 1 mps 548 mmHg 73%
    03:00 +9°C° 0 mm 1 mps 548 mmHg 74%
    04:00 +9°C° 0 mm 1 mps 548 mmHg 76%
    05:00 +10°C° 0 mm 1 mps 549 mmHg 77%
    06:00 +10°C° 0 mm 1 mps 549 mmHg 78%
    07:00 +10°C° 0 mm 1 mps 550 mmHg 79%
    08:00 +12°C° 0 mm 1 mps 550 mmHg 74%
    09:00 +13°C° 0 mm 2 mps 551 mmHg 70%
    10:00 +15°C° 0 mm 2 mps 552 mmHg 65%
    11:00 +15°C° 0 mm 2 mps 551 mmHg 63%
    12:00 +16°C° 0 mm 2 mps 551 mmHg 61%
    13:00 +17°C° 0 mm 2 mps 551 mmHg 59%
    14:00 +16°C° 0.1 mm 2 mps 551 mmHg 61%
    15:00 +16°C° 0.1 mm 2 mps 550 mmHg 63%
    16:00 +16°C° 0.1 mm 2 mps 550 mmHg 64%
    17:00 +14°C° 0 mm 1 mps 549 mmHg 71%
    18:00 +12°C° 0 mm 1 mps 548 mmHg 78%
    19:00 +11°C° 0 mm 1 mps 547 mmHg 85%
    20:00 +10°C° 0 mm 1 mps 548 mmHg 85%
    21:00 +10°C° 0 mm 1 mps 548 mmHg 84%
    22:00 +10°C° 0 mm 1 mps 548 mmHg 84%
    23:00 +10°C° 0 mm 1 mps 548 mmHg 83%

    Tomorrow, 16 December, Saturday

    Time Temperature Precipitation Wind Pressure Humidity
    00:00 +10°C° 0 mm 1 mps 548 mmHg 83%
    01:00 +10°C° 0 mm 1 mps 548 mmHg 82%
    02:00 +10°C° 0 mm 1 mps 548 mmHg 82%
    03:00 +9°C° 0 mm 1 mps 548 mmHg 82%
    04:00 +9°C° 0 mm 1 mps 548 mmHg 82%
    05:00 +10°C° 0 mm 1 mps 548 mmHg 81%
    06:00 +10°C° 0 mm 1 mps 549 mmHg 80%
    07:00 +11°C° 0 mm 1 mps 550 mmHg 79%
    08:00 +13°C° 0 mm 1 mps 551 mmHg 72%
    09:00 +15°C° 0 mm 1 mps 552 mmHg 66%
    10:00 +16°C° 0 mm 2 mps 553 mmHg 59%
    11:00 +17°C° 0 mm 2 mps 552 mmHg 59%
    12:00 +18°C° 0 mm 1 mps 552 mmHg 60%
    13:00 +18°C° 0 mm 1 mps 551 mmHg 60%
    14:00 +18°C° 0 mm 1 mps 550 mmHg 61%
    15:00 +18°C° 0 mm 1 mps 550 mmHg 63%
    16:00 +16°C° 0 mm 1 mps 549 mmHg 65%
    17:00 +15°C° 0 mm 1 mps 549 mmHg 72%
    18:00 +13°C° 0 mm 1 mps 548 mmHg 79%
    19:00 +10°C° 0 mm 0 mps 548 mmHg 87%
    20:00 +10°C° 0 mm 0 mps 548 mmHg 87%
    21:00 +11°C° 0 mm 1 mps 548 mmHg 87%
    22:00 +11°C° 0 mm 1 mps 549 mmHg 87%
    23:00 +11°C° 0 mm 1 mps 549 mmHg 88%

    Day after tomorrow, 17 December, Sunday

    Time Temperature Precipitation Wind Pressure Humidity
    00:00 +10°C° 0 mm 1 mps 548 mmHg 88%
    01:00 +9°C° 0 mm 0 mps 548 mmHg 88%
    02:00 +9°C° 0 mm 0 mps 548 mmHg 88%
    03:00 +10°C° 0 mm 1 mps 547 mmHg 88%
    04:00 +9°C° 0 mm 1 mps 547 mmHg 88%
    05:00 +10°C° 0 mm 1 mps 548 mmHg 87%
    06:00 +10°C° 0 mm 1 mps 549 mmHg 85%
    07:00 +11°C° 0 mm 1 mps 549 mmHg 84%
    08:00 +12°C° 0 mm 1 mps 550 mmHg 74%
    09:00 +14°C° 0 mm 1 mps 552 mmHg 65%
    10:00 +16°C° 0 mm 2 mps 553 mmHg 55%
    11:00 +17°C° 0 mm 2 mps 553 mmHg 51%
    12:00 +18°C° 0 mm 2 mps 552 mmHg 47%
    13:00 +19°C° 0 mm 2 mps 552 mmHg 44%
    14:00 +18°C° 0 mm 2 mps 551 mmHg 46%
    15:00 +18°C° 0 mm 2 mps 551 mmHg 49%
    16:00 +17°C° 0 mm 2 mps 550 mmHg 51%
    17:00 +15°C° 0 mm 1 mps 549 mmHg 61%
    18:00 +12°C° 0 mm 1 mps 548 mmHg 71%
    19:00 +10°C° 0 mm 1 mps 547 mmHg 81%
    20:00 +9°C° 0 mm 1 mps 547 mmHg 80%
    21:00 +9°C° 0 mm 1 mps 547 mmHg 80%
    22:00 +8°C° 0 mm 1 mps 548 mmHg 79%
    23:00 +8°C° 0 mm 1 mps 547 mmHg 77%

    18 December, Monday

    Time Temperature Precipitation Wind Pressure Humidity
    00:00 +7°C° 0 mm 1 mps 547 mmHg 74%
    01:00 +7°C° 0 mm 1 mps 546 mmHg 72%
    02:00 +7°C° 0 mm 1 mps 546 mmHg 67%
    03:00 +6°C° 0 mm 1 mps 546 mmHg 63%
    04:00 +6°C° 0 mm 1 mps 546 mmHg 58%
    05:00 +7°C° 0 mm 1 mps 546 mmHg 56%
    06:00 +7°C° 0 mm 1 mps 547 mmHg 54%
    07:00 +8°C° 0 mm 1 mps 548 mmHg 51%
    08:00 +10°C° 0 mm 2 mps 550 mmHg 46%
    09:00 +14°C° 0 mm 2 mps 551 mmHg 41%
    10:00 +17°C° 0 mm 2 mps 553 mmHg 35%
    11:00 +18°C° 0 mm 2 mps 553 mmHg 35%
    12:00 +18°C° 0 mm 2 mps 552 mmHg 34%
    13:00 +19°C° 0 mm 3 mps 552 mmHg 34%
    14:00 +19°C° 0 mm 2 mps 551 mmHg 36%
    15:00 +18°C° 0 mm 2 mps 551 mmHg 39%
    16:00 +17°C° 0 mm 2 mps 550 mmHg 41%
    17:00 +15°C° 0 mm 1 mps 549 mmHg 50%
    18:00 +12°C° 0 mm 1 mps 548 mmHg 59%
    19:00 +9°C° 0 mm 1 mps 547 mmHg 68%
    20:00 +9°C° 0 mm 1 mps 547 mmHg 68%
    21:00 +8°C° 0 mm 1 mps 548 mmHg 67%
    22:00 +8°C° 0 mm 1 mps 548 mmHg 66%
    23:00 +8°C° 0 mm 1 mps 548 mmHg 67%

    19 December, Tuesday

    Time Temperature Precipitation Wind Pressure Humidity
    00:00 +7°C° 0 mm 1 mps 547 mmHg 68%
    01:00 +7°C° 0 mm 1 mps 547 mmHg 69%
    02:00 +7°C° 0 mm 1 mps 547 mmHg 70%
    03:00 +7°C° 0 mm 1 mps 546 mmHg 71%
    04:00 +6°C° 0 mm 1 mps 546 mmHg 72%
    05:00 +7°C° 0 mm 1 mps 547 mmHg 70%
    06:00 +8°C° 0 mm 1 mps 548 mmHg 67%
    07:00 +8°C° 0 mm 1 mps 548 mmHg 65%
    08:00 +11°C° 0 mm 1 mps 550 mmHg 55%
    09:00 +14°C° 0 mm 2 mps 551 mmHg 45%
    10:00 +17°C° 0 mm 2 mps 553 mmHg 35%
    11:00 +18°C° 0 mm 2 mps 553 mmHg 35%
    12:00 +18°C° 0 mm 2 mps 552 mmHg 35%
    13:00 +19°C° 0 mm 2 mps 552 mmHg 34%
    14:00 +18°C° 0 mm 2 mps 551 mmHg 38%
    15:00 +18°C° 0 mm 2 mps 550 mmHg 41%
    16:00 +18°C° 0 mm 1 mps 550 mmHg 44%
    17:00 +15°C° 0 mm 1 mps 549 mmHg 54%
    18:00 +12°C° 0 mm 1 mps 548 mmHg 64%
    19:00 +9°C° 0 mm 1 mps 547 mmHg 75%
    20:00 +9°C° 0 mm 1 mps 548 mmHg 75%
    21:00 +9°C° 0 mm 1 mps 548 mmHg 76%
    22:00 +9°C° 0 mm 1 mps 548 mmHg 77%
    23:00 +8°C° 0 mm 1 mps 548 mmHg 78%

    20 December, Wednesday

    Time Temperature Precipitation Wind Pressure Humidity
    00:00 +8°C° 0 mm 1 mps 548 mmHg 79%
    01:00 +8°C° 0 mm 1 mps 547 mmHg 79%
    02:00 +8°C° 0 mm 1 mps 547 mmHg 80%
    03:00 +7°C° 0 mm 1 mps 547 mmHg 80%
    04:00 +7°C° 0 mm 1 mps 547 mmHg 80%
    05:00 +8°C° 0 mm 1 mps 547 mmHg 78%
    06:00 +8°C° 0 mm 1 mps 548 mmHg 75%
    07:00 +9°C° 0 mm 1 mps 549 mmHg 73%
    08:00 +12°C° 0 mm 1 mps 550 mmHg 63%
    09:00 +14°C° 0 mm 2 mps 551 mmHg 53%
    10:00 +17°C° 0 mm 2 mps 553 mmHg 43%
    11:00 +17°C° 0 mm 2 mps 552 mmHg 42%
    12:00 +18°C° 0 mm 2 mps 552 mmHg 41%
    13:00 +19°C° 0 mm 2 mps 552 mmHg 41%
    14:00 +18°C° 0 mm 2 mps 551 mmHg 44%
    15:00 +19°C° 0 mm 1 mps 550 mmHg 48%
    16:00 +18°C° 0 mm 1 mps 549 mmHg 52%
    17:00 +15°C° 0 mm 1 mps 548 mmHg 61%
    18:00 +13°C° 0 mm 1 mps 548 mmHg 70%
    19:00 +10°C° 0 mm 1 mps 547 mmHg 79%
    20:00 +10°C° 0 mm 1 mps 547 mmHg 79%
    21:00 +10°C° 0 mm 1 mps 548 mmHg 80%
    22:00 +10°C° 0 mm 1 mps 548 mmHg 81%
    23:00 +10°C° 0 mm 1 mps 548 mmHg 82%
    Show more